Point Salines, Grenada

5:36 AM AST on June 26, 2017 (GMT -0400)
Point Salines International

Weather History for TGPY - March, 2013

Change the Weather History Date:

Tuesday, March 12, 2013

  Actual Average Record
Temperature  
Mean Temperature 82 °F -  
Max Temperature 88 °F 83 °F 88 °F (2013)
Min Temperature 75 °F 75 °F 71 °F (2016)
Cooling Degree Days 16    
Growing Degree Days 32 (Base 50)    
Moisture  
Dew Point 75 °F    
Average Humidity 78    
Maximum Humidity 89    
Minimum Humidity 62    
Precipitation  
Precipitation 0.01 in - - ()
Sea Level Pressure  
Sea Level Pressure 29.92 in    
Wind  
Wind Speed 10 mph ()    
Max Wind Speed 23 mph    
Max Gust Speed -    
Visibility 6.7 miles    
Events      
Averages and records for this station are not official NWS values.
T = Trace of Precipitation, MM = Missing Value Source: Averaged Metar Reports

Daily Weather History Graph

Daily Weather History Graph

Search for Another Location

Airport or City:

Trip Planner

Search our weather history database for the weather conditions in past years. The results will help you decide how hot, cold, wet, or windy it might be!

Date:

Astronomy

Mar. 12, 2013 Rise Set
Actual Time 6:16 AM AST 6:17 PM AST
Civil Twilight 5:54 AM AST 6:38 PM AST
Nautical Twilight 5:30 AM AST 7:03 PM AST
Astronomical Twilight 5:05 AM AST 7:27 PM AST
Moon 6:35 AM AST (3/12) 7:06 PM AST (3/12)
Length of Visible Light 12h 43m
Length of Day
12h 01m
New Moon, 1% of the Moon is Illuminated
Mar 12
New Moon
Mar 19
First Quarter
Mar 27
Full
Apr 3
Last Quarter
Apr 10
New

Hourly Weather History & Observations

Time (AST) Temp. Heat Index Dew Point Humidity Pressure Visibility Wind Dir Wind Speed Gust Speed Precip Events Conditions
12:00 AM 78.8 °F - 75.2 °F 89% 29.92 in 6.2 mi East 8.1 mph - N/A   Mostly Cloudy
1:00 AM 78.8 °F - 75.2 °F 89% 29.92 in 6.2 mi Calm Calm - N/A   Mostly Cloudy
2:00 AM 79 °F - 75 °F 83% 29.90 in 12 mi 2.3 mph - -   Widespread Dust
2:00 AM 78.8 °F - 75.2 °F 89% 29.89 in 6.2 mi Variable 2.3 mph - N/A   Mostly Cloudy
3:00 AM 78.8 °F - 75.2 °F 89% 29.89 in 6.2 mi Variable 2.3 mph - N/A   Mostly Cloudy
4:00 AM 78.8 °F - 73.4 °F 83% 29.86 in 6.2 mi Calm Calm - N/A   Mostly Cloudy
5:00 AM 78 °F - 74 °F 84% 29.90 in 11 mi East 9.2 mph - -   Widespread Dust
5:00 AM 77.0 °F - 73.4 °F 89% 29.89 in 6.2 mi East 9.2 mph - N/A   Mostly Cloudy
6:00 AM 78.8 °F - 75.2 °F 89% 29.92 in 6.2 mi East 6.9 mph - N/A   Mostly Cloudy
7:00 AM 78.8 °F - 73.4 °F 83% 29.92 in 5.0 mi East 9.2 mph - N/A   Scattered Clouds
8:00 AM 83 °F - 76 °F 74% 29.96 in 6 mi East 18.4 mph - -   Mostly Cloudy
8:00 AM 82.4 °F 90.9 °F 77.0 °F 84% 29.95 in 5.6 mi East 18.4 mph - N/A   Mostly Cloudy
9:00 AM 84.2 °F 92.3 °F 75.2 °F 74% 29.98 in 6.2 mi East 17.3 mph - N/A   Scattered Clouds
10:00 AM 86.0 °F 95.1 °F 75.2 °F 70% 29.98 in 6.2 mi East 18.4 mph - N/A   Scattered Clouds
11:00 AM 86 °F - 75 °F 62% 29.99 in 9 mi East 18.4 mph - -   Widespread Dust
11:00 AM 86.0 °F 95.1 °F 75.2 °F 70% 29.98 in 6.2 mi East 18.4 mph - N/A   Scattered Clouds
12:00 PM 87.8 °F 97.6 °F 75.2 °F 66% 29.95 in 6.2 mi ESE 23.0 mph - N/A   Scattered Clouds
1:00 PM 86.0 °F 95.1 °F 75.2 °F 70% 29.92 in 6.2 mi East 17.3 mph - N/A   Scattered Clouds
2:00 PM 87 °F - 76 °F 62% 29.91 in 7 mi SE 23.0 mph - -   Partly Cloudy
2:00 PM 87.8 °F 97.6 °F 75.2 °F 66% 29.92 in 6.2 mi SE 23.0 mph - N/A   Scattered Clouds
3:00 PM 86.0 °F 95.1 °F 75.2 °F 70% 29.89 in 6.2 mi East 23.0 mph - N/A   Mostly Cloudy
4:00 PM 86.0 °F 95.1 °F 75.2 °F 70% 29.89 in 6.2 mi ESE 20.7 mph - N/A   Mostly Cloudy
5:00 PM 84 °F - 76 °F 70% 29.90 in 9 mi East 20.7 mph - -   Widespread Dust
5:00 PM 84.2 °F 92.3 °F 75.2 °F 74% 29.89 in 6.2 mi East 20.7 mph - N/A   Mostly Cloudy
6:00 PM 80.6 °F 86.2 °F 75.2 °F 84% 29.89 in 6.2 mi East 18.4 mph - N/A   Mostly Cloudy
7:00 PM 80.6 °F 86.2 °F 75.2 °F 84% 29.89 in 6.2 mi East 16.1 mph - N/A   Mostly Cloudy
8:00 PM 81 °F - 74 °F 75% 29.93 in 7 mi East 23.0 mph - -   Widespread Dust
8:00 PM 80.6 °F 86.2 °F 75.2 °F 84% 29.92 in 6.2 mi East 23.0 mph - N/A   Mostly Cloudy
9:00 PM 80.6 °F 86.2 °F 75.2 °F 84% 29.95 in 6.2 mi East 17.3 mph - N/A   Mostly Cloudy
10:00 PM 80.6 °F 86.2 °F 75.2 °F 84% 29.95 in 6.2 mi East 13.8 mph - N/A   Mostly Cloudy
11:00 PM 80 °F - 75 °F 79% 29.96 in 7 mi East 11.5 mph - -   Widespread Dust
11:00 PM 80.6 °F 86.2 °F 75.2 °F 84% 29.95 in 6.2 mi East 11.5 mph - N/A   Mostly Cloudy